Location: Ammerl�gen
(47.2167°N, 9.6000°E)
Time: 17:47:00
(UTC+00:00)

NOAA 19 - Pass Details

Date: 04 December 2021
Orbit: 841 x 860 km, 99.2° (Epoch: 17 January)

Event Time Altitude Azimuth Distance (km) Brightness Sun altitude
Rises 16:53:10 0° 133° (SE) 3,388 8.1 -13.1°
Reaches altitude 10° 16:55:44 10° 123° (ESE) 2,458 7.3 -13.6°
Maximum altitude 17:00:29 32° 62° (ENE) 1,430 5.8 -14.3°
Drops below altitude 10° 17:05:15 10° 2° (N) 2,479 7.4 -15.1°
Sets 17:07:50 0° 353° (N) 3,421 8.3 -15.5°
